Regional Weather Roundup
Issued by NWS Jackson, KY

Home | Current Version | Previous Version | Text Only | Print | Product List | Glossary On
Versions: 1 2 3 4 5 6 7 8 9 10 11 12 13 14 15 16 17 18 19 20 21 22 23 24 25 26 27 28 29 30 31 32 33 34 35 36 37 38 39 40 41 42 43 44 45 46 47 48 49 50
000
ASUS43 KJKL 281610
RWRJKL

EAST KENTUCKY HOURLY WEATHER ROUNDUP
NATIONAL WEATHER SERVICE JACKSON KY
1200 PM EDT THU MAY 28 2015

NOTE: "FAIR" INDICATES FEW OR NO CLOUDS BELOW 12,000 FEET WITH
NO SIGNIFICANT WEATHER AND/OR OBSTRUCTIONS TO VISIBILITY.

* THESE REPORTS ARE NOT UNDER NWS QUALITY CONTROL AND MAY NOT
  REPORT WEATHER SUCH AS PRECIPITATION AND FOG.

KYZ079-080-083-085-087-088-110-112-115-119-120-281700
...EASTERN KENTUCKY...

CITY           SKY/WX    TMP DP  RH WIND       PRES   REMARKS
JACKSON        CLOUDY    76  65  68 CALM      30.26S
LONDON         CLOUDY    73  61  65 E5        30.26S
SOMERSET*      PTSUNNY   70  64  83 SE3       30.26S
MONTICELLO*    CLOUDY    73  68  84 CALM      30.27F
MIDDLESBORO*   CLOUDY    75  65  70 CALM      30.26S
HARLAN APT*    PTSUNNY   73  61  64 MISG      30.27S
HAZARD APT*    SUNNY     77  63  61 S5        30.26
BLACK MTN*       N/A     72  63  73 N1          N/A
PIKEVILLE APT* PTSUNNY   73  64  73 SE3       30.27R
BIG SANDY*     CLOUDY    76  64  67 CALM      30.26S
MOREHEAD APT*  CLOUDY    73  64  73 CALM      30.28R
$$

KYZ035-036-041-042-044-050-067-078-099-281700
...CENTRAL KENTUCKY...

CITY           SKY/WX    TMP DP  RH WIND       PRES   REMARKS
MT STERLING*   CLOUDY    72  64  78 SE3       30.26S
FLEMING/MASON* PTSUNNY   72  66  83 SE3       30.25S
DANVILLE*      PTSUNNY   73  68  83 S6        30.26S
RICHMOND*      CLOUDY    73  64  73 SE3       30.25S
LEXINGTON      PTSUNNY   75  67  76 CALM      30.24S
FRANKFORT        N/A     70  65  84 MISG      30.24R
$$

KYZ091>093-OHZ055-061-077-WVZ005-015-034-035-042-281700
...SOUTHERN OHIO/WEST VIRGINIA...

CITY           SKY/WX    TMP DP  RH WIND       PRES   REMARKS
COVINGTON      PTSUNNY   73  66  78 VRB5      30.23S HAZE
COLUMBUS       PTSUNNY   76  63  64 VRB5      30.24R
DAYTON         MOSUNNY   77  66  68 S7        30.25R
WILMINGTON     MOSUNNY   75  64  68 SE8       30.24S
HUNTINGTON     PTSUNNY   76  61  59 VRB3      30.24S
CHARLESTON     PTSUNNY   78  59  51 VRB3      30.24S
PINEVILLE*       N/A     75  66  73 MISG      30.33S
BECKLEY        CLOUDY    72  57  59 NE7       30.32S
BLUEFIELD      PTSUNNY   77  60  55 VRB5      30.33R
$$

VAZ002-007-008-TNZ017-027-036-066-071-281700
...SOUTHWEST VIRGINIA/EAST TENNESSEE...

CITY           SKY/WX    TMP DP  RH WIND       PRES   REMARKS
WISE*          CLOUDY    77  57  50 NE6       30.32S
JONESVILLE*    PTSUNNY   79  63  57 SE5       30.28S
ABINGDON*      MOSUNNY   78  64  60 CALM      30.30R
BRISTOL        MOSUNNY   79  63  57 VRB3      30.26S
KNOXVILLE      CLOUDY    79  60  52 W7        30.22F
CROSSVILLE     CLOUDY    69  62  78 SE3       30.29R
NASHVILLE      PTSUNNY   75  67  76 E6        30.22S
$$

...KEY TO REMARKS...
VSB - VISIBILITY IN MILES
WCI - WIND CHILL INDEX
HX  - HEAT INDEX

$$


USA.gov is the U.S. government's official web portal to all federal, state and local government web resources and services.